Dewpoint
61 61 61 61 61 61 61 61 61 61 61 61 61 61 61 61 61 61 61 61 61 60 60 61 61 61 61 61 61 61 61 62 62 62 62 62 62 62 62 62 62 62 62 62 62 61 61 61 61 61 61 61 60 60 60 60 59 59 58 58 58 58 57 56 56 56 56 56 57
59 59 60 61 61 61 61 61 61 61 61 61 61 61 61 61 61 61 62 62 61 61 61 61 61 60 61 61 61 61 61 61 61 61 61 61 62 62 62 62 62 62 61 61 61 61 61 61 61 61 60 61 60 60 60 61 60 60 59 59 59 58 58 57 57 56 56 56 57
56 57 58 59 60 60 61 61 61 61 61 61 61 61 61 61 61 61 61 62 62 61 61 61 60 60 60 60 61 61 61 61 61 61 61 61 61 61 61 61 61 61 61 61 61 61 61 61 60 60 60 60 60 60 60 60 60 60 60 59 59 59 59 58 58 57 57 57 57
54 54 55 56 57 58 59 59 59 60 60 60 61 61 61 61 61 61 61 61 61 61 61 60 60 60 60 60 60 60 60 60 60 60 60 60 60 60 61 61 61 61 61 61 61 61 61 61 60 60 60 60 60 60 60 60 60 60 60 60 60 60 59 59 59 59 59 58 58
52 53 53 54 54 55 56 57 57 58 58 59 59 59 59 60 60 61 61 61 61 61 61 60 60 60 60 60 60 60 60 60 59 60 60 60 60 60 60 60 60 60 60 60 60 61 61 60 60 60 60 60 60 60 60 60 60 60 60 60 60 60 60 60 60 59 59 59 59
50 51 51 52 52 53 54 54 55 55 55 55 55 56 57 57 58 59 59 60 61 61 61 60 60 60 59 60 59 59 59 59 59 59 59 59 60 60 60 60 60 60 60 60 60 61 61 61 61 60 60 61 60 61 60 60 60 60 60 60 60 60 60 60 60 60 60 59 59
49 49 50 50 50 51 51 52 52 53 53 53 53 53 53 54 55 56 57 58 59 60 60 60 60 59 59 59 59 59 59 59 59 59 59 59 59 59 60 60 60 60 60 61 61 61 61 61 61 60 60 60 61 61 61 61 61 60 60 60 60 60 60 60 60 60 60 59 59
47 48 48 49 49 50 50 50 50 50 51 51 51 51 51 52 53 54 54 56 57 58 59 60 59 59 59 59 59 59 59 59 58 58 58 58 58 59 59 59 59 59 60 60 60 60 61 61 60 60 60 59 59 60 60 60 60 60 60 59 59 59 59 60 60 60 59 59 59
45 46 47 47 48 48 48 48 49 49 49 49 49 50 50 50 51 51 53 54 54 55 57 58 59 59 59 59 59 58 58 58 58 58 58 58 58 58 58 59 59 59 59 59 59 60 59 59 59 59 59 59 59 59 59 59 59 59 59 59 59 59 59 59 59 59 59 59 59
44 45 45 46 46 46 47 47 47 47 47 47 48 48 48 49 49 50 51 52 53 53 54 55 56 57 58 58 58 58 58 58 58 58 58 58 58 58 58 58 59 59 59 59 59 59 59 59 59 59 59 59 59 59 59 59 59 59 59 59 59 59 59 59 59 59 59 59 59
43 43 44 44 45 45 45 45 45 46 46 46 46 47 47 47 48 49 50 50 51 51 52 52 53 54 55 56 57 58 58 58 58 58 58 58 58 58 58 59 59 59 59 59 59 59 59 59 59 59 59 59 59 59 59 59 59 59 59 59 59 59 59 59 59 59 59 59 59
41 42 42 43 43 44 44 44 45 45 45 45 45 45 46 46 47 47 48 48 49 50 50 51 51 51 52 53 54 55 57 57 58 58 58 58 59 59 59 59 59 59 59 59 59 59 59 59 59 59 58 58 58 58 58 58 58 58 58 58 58 58 58 58 59 59 59 59 59
40 41 41 41 42 42 43 43 43 43 43 44 44 45 45 45 46 46 47 47 48 48 49 50 50 50 50 51 51 52 53 54 55 56 57 57 58 58 58 59 59 59 58 59 59 59 59 58 58 58 58 57 57 57 57 57 57 57 57 57 57 58 58 58 58 58 59 59 59
39 39 40 40 41 41 41 41 42 42 42 42 43 44 44 45 45 45 46 46 46 47 48 48 49 49 50 50 50 50 50 50 51 52 53 54 54 55 56 57 57 58 58 58 58 58 58 58 58 57 57 56 56 56 56 56 56 56 56 56 57 57 57 57 57 57 58 58 58
36 37 38 39 39 40 40 40 41 41 41 41 41 42 43 44 44 45 45 45 45 46 46 47 47 48 48 49 49 49 49 49 49 49 50 50 50 51 52 54 54 55 56 57 57 58 58 58 57 57 57 56 56 56 56 56 56 56 56 56 56 56 57 57 57 57 57 57 57
33 34 36 36 37 38 38 39 39 40 40 40 40 41 41 42 43 43 44 44 45 45 45 45 46 46 47 47 48 48 48 48 48 48 48 48 48 49 49 50 51 53 54 55 56 57 57 57 57 57 57 57 56 56 56 56 56 56 56 56 56 56 57 57 57 57 57 56 56
32 33 33 33 34 35 36 36 36 37 37 37 38 38 39 40 41 41 42 42 43 44 44 44 45 45 45 46 46 46 46 46 46 46 46 47 47 47 48 48 49 50 52 54 55 55 56 56 57 57 57 57 57 57 57 56 56 56 56 56 56 57 57 57 57 57 57 56 56
32 32 32 32 32 33 33 33 34 34 35 35 36 36 37 38 39 40 41 41 42 42 43 43 43 44 45 45 45 45 45 45 45 45 45 45 45 46 46 47 48 49 50 52 52 53 53 54 55 56 56 57 57 57 57 57 57 57 57 57 57 57 57 57 57 57 57 57 56
31 31 31 32 32 32 32 32 32 33 33 34 34 35 35 36 37 39 40 41 41 42 42 42 42 43 43 44 44 45 45 45 44 44 44 44 44 45 45 46 47 48 49 50 49 49 49 50 51 52 53 55 56 56 57 57 57 57 57 57 57 57 57 57 57 57 57 57 56
30 31 31 31 31 32 32 32 32 32 32 33 33 33 34 35 36 38 39 40 40 41 42 42 42 42 42 43 43 43 44 44 44 44 44 44 44 44 44 45 45 46 47 47 46 46 47 48 48 48 50 50 52 53 54 56 57 57 57 57 57 57 57 57 57 57 57 57 57
30 30 30 31 31 31 31 31 31 32 32 32 32 33 33 34 35 36 37 37 38 39 40 41 41 41 41 41 41 42 42 43 43 43 44 44 44 44 44 44 45 45 46 46 45 45 46 47 47 47 47 48 49 50 51 52 54 55 56 57 57 57 57 57 57 57 57 57 57
30 30 30 30 30 31 31 31 31 31 31 31 32 32 32 33 34 35 35 36 36 37 38 39 39 39 39 40 40 41 41 41 42 43 43 43 43 43 44 44 44 45 45 45 45 45 45 46 46 47 47 47 48 48 49 49 50 51 53 54 56 56 57 57 57 57 57 57 57
29 29 29 30 30 30 31 30 30 30 30 31 31 31 31 32 32 33 33 34 35 36 37 37 38 38 38 39 39 39 39 41 41 42 42 42 42 43 43 43 43 44 44 44 44 45 45 45 46 46 46 46 47 47 47 47 48 49 50 51 53 54 55 57 57 57 57 57 57
29 29 29 29 29 29 30 30 30 30 30 30 30 30 31 31 31 32 32 33 34 36 36 36 36 37 37 38 38 37 37 38 40 41 41 42 42 42 42 42 42 42 42 42 43 44 44 45 45 45 45 45 46 46 46 46 47 47 48 48 49 51 53 54 56 56 57 57 57
28 28 29 29 29 29 29 29 29 29 29 30 30 30 30 30 31 31 32 32 33 34 35 36 36 36 36 36 36 36 36 37 38 39 40 40 41 41 41 41 40 40 41 41 42 43 44 45 45 45 45 45 45 45 45 45 45 45 46 47 48 49 50 51 54 55 56 57 57
28 28 28 28 28 28 28 29 29 29 29 29 29 29 29 29 30 30 31 31 32 32 33 35 35 35 35 34 35 36 36 35 36 37 38 38 38 38 37 38 38 39 40 41 41 42 43 44 44 44 44 44 44 44 44 44 44 45 45 46 46 47 48 50 51 53 54 55 56
27 27 27 27 27 28 28 28 28 28 28 28 28 28 28 29 29 30 30 31 31 31 32 32 32 33 33 33 34 35 34 34 35 36 36 37 36 36 35 36 36 37 38 40 41 42 42 43 43 43 44 44 44 44 43 44 44 44 45 45 46 46 47 48 49 50 51 52 54
27 27 27 27 27 27 27 27 27 27 27 27 28 28 28 28 28 29 30 30 30 31 31 31 31 32 32 32 33 33 34 33 34 34 35 36 34 34 34 35 35 36 37 39 40 41 41 42 42 42 43 43 43 44 43 43 43 43 44 45 45 45 46 47 48 49 50 50 51
27 27 27 27 27 27 27 27 27 27 27 27 27 27 27 27 27 28 29 30 30 30 31 31 31 31 32 32 32 32 32 32 33 33 34 34 33 33 33 34 35 36 37 39 40 40 41 41 41 41 42 42 43 43 43 43 42 42 43 43 44 45 45 46 46 47 48 49 49
27 27 26 26 26 27 27 27 27 27 27 27 27 27 27 27 27 27 28 29 30 30 30 30 30 30 31 31 31 31 31 32 32 32 32 33 32 32 33 34 34 35 36 38 39 39 40 40 40 41 41 41 42 42 42 42 42 42 42 43 43 44 45 45 45 46 47 48 49
26 26 26 26 26 26 26 27 27 26 26 26 26 26 26 26 27 27 28 29 29 30 30 30 29 29 29 30 30 30 31 31 31 31 31 31 32 32 32 33 33 34 36 37 38 38 39 39 40 40 40 41 41 41 42 41 41 41 42 42 42 43 44 44 45 45 46 47 47
26 26 26 26 26 26 26 26 26 26 26 26 26 26 26 26 26 27 27 28 29 29 28 28 28 28 29 29 29 30 30 30 31 31 31 32 32 32 32 32 33 34 35 36 37 38 38 39 39 39 40 40 41 41 41 41 41 41 41 41 42 42 43 43 44 45 45 46 46
26 26 26 26 26 26 26 26 26 26 26 26 25 25 26 26 26 27 27 28 28 27 27 27 27 27 28 28 29 29 29 30 30 31 31 31 32 32 32 32 32 33 35 36 37 37 38 38 38 39 39 40 40 41 40 40 41 41 41 41 41 42 43 43 44 44 45 45 45
25 25 26 26 26 26 26 26 26 26 26 25 25 25 26 26 26 26 27 28 27 27 27 27 27 27 27 28 28 28 29 30 30 30 31 31 31 31 31 31 32 33 35 36 36 37 37 37 38 38 39 39 40 40 40 40 40 40 41 41 41 41 42 42 43 43 44 45 45
25 25 25 25 25 25 25 25 25 25 25 25 25 25 25 26 26 26 27 28 27 27 26 26 26 26 27 27 27 28 28 29 30 30 30 30 30 30 30 30 31 32 34 35 36 36 37 37 37 37 38 38 39 39 40 40 40 40 40 40 41 41 41 41 42 43 44 44 45
23 23 24 24 24 24 24 24 24 24 24 24 24 24 25 25 25 26 26 27 27 26 25 25 26 26 26 26 27 27 28 27 28 29 30 30 30 30 30 30 30 32 34 35 35 36 36 36 37 37 37 38 39 39 39 40 40 40 40 40 40 41 41 41 41 42 43 44 45
23 23 23 23 23 23 23 23 23 23 23 23 23 23 24 24 24 24 25 27 25 24 24 25 25 25 25 26 26 27 27 27 27 28 28 29 29 29 29 30 30 31 33 34 35 35 36 36 36 36 37 37 38 38 39 39 40 40 40 40 40 40 40 41 41 41 42 43 44
22 22 22 22 22 22 22 22 22 22 22 23 23 23 23 23 23 24 25 26 24 23 23 23 23 23 24 25 25 26 26 27 27 27 27 28 28 29 29 30 30 31 32 33 34 35 35 36 36 36 36 36 37 38 38 39 39 39 40 40 40 40 40 41 41 41 42 42 43
21 21 21 21 21 21 21 21 21 21 22 22 22 22 22 23 23 24 25 25 24 23 23 23 23 23 24 25 25 25 25 25 26 27 27 27 28 29 29 29 29 30 32 33 34 34 35 35 35 36 36 35 36 37 37 38 38 39 39 39 39 39 39 40 41 41 41 42 42
20 20 20 20 21 21 21 20 20 21 21 22 22 22 23 23 23 24 24 24 23 23 23 23 23 24 24 25 25 24 24 25 25 26 27 27 28 29 29 28 28 29 31 32 33 34 35 35 35 35 35 34 35 36 37 38 38 38 38 39 39 39 39 39 40 40 41 41 42
19 19 20 20 20 20 20 20 20 21 21 21 22 23 23 24 23 23 23 23 23 23 23 23 23 23 24 25 24 24 23 24 24 25 26 27 27 27 27 27 27 28 29 31 32 33 34 35 35 35 35 34 35 36 36 37 37 37 38 38 38 39 39 39 39 39 40 40 41